EW3683 Weather Reports


Display with metric or nautical units.
time (UTC)temp
F
wind
direction
speed
MPH
gust
MPH
rain 1hr
in
rain 24hr
in
rain mn
in
humidity
%
barometer
mb
20260503201546 78 12 1.0 3.0 0.00 0.00 0.00 51 1011.2
20260503200043 77 329 0.0 3.0 0.00 0.00 0.00 51 1011.4
20260503194544 76 286 0.0 2.0 0.00 0.00 0.00 53 1011.7
20260503193039 75 344 1.0 3.0 0.00 0.00 0.00 51 1011.9
20260503191540 74 197 1.0 3.0 0.00 0.00 0.00 52 1012.0
20260503190037 73 199 0.0 2.0 0.00 0.00 0.00 55 1012.1
20260503184526 72 306 0.0 3.0 0.00 0.00 0.00 55 1012.3
20260503183023 70 171 0.0 2.0 0.00 0.00 0.00 58 1012.4
20260503181518 69 153 0.0 2.0 0.00 0.00 0.00 62 1012.5
20260503180014 68 298 0.0 4.0 0.00 0.00 0.00 63 1012.7
20260503174509 66 343 0.0 4.0 0.00 0.00 0.00 66 1012.9
20260503173006 65 161 0.0 2.0 0.00 0.00 0.00 68 1013.0
20260503171503 64 342 0.0 3.0 0.00 0.00 0.00 70 1013.0
20260503081602 52 228 0.0 1.0 0.00 0.00 0.00 90 1014.0
20260503071553 54 228 0.0 0.0 0.00 0.00 0.00 90 1014.0
20260503060110 57 228 0.0 0.0 0.00 0.00 0.00 85 1014.0
20260503054601 57 228 0.0 0.0 0.00 0.00 0.00 85 1014.0
20260503053047 58 228 0.0 0.0 0.00 0.00 0.00 82 1013.9
20260503051546 58 228 0.0 1.0 0.00 0.00 0.00 81 1013.7
20260503050046 59 228 0.0 0.0 0.00 0.00 0.00 79 1013.5
20260503044548 60 228 0.0 1.0 0.00 0.00 0.00 77 1013.3
20260503043048 61 228 0.0 0.0 0.00 0.00 0.00 74 1013.1
20260503041546 62 228 0.0 0.0 0.00 0.00 0.00 72 1012.9
20260503040044 63 228 0.0 1.0 0.00 0.00 0.00 72 1012.7
20260503034543 64 228 0.0 1.0 0.00 0.00 0.00 70 1012.5
20260503033042 66 228 0.0 0.0 0.00 0.00 0.00 67 1012.1
20260503031545 68 228 0.0 1.0 0.00 0.00 0.00 64 1011.9
20260503030046 69 228 0.0 1.0 0.00 0.00 0.00 57 1011.7
20260503024540 70 243 0.0 1.0 0.00 0.00 0.00 55 1011.8
20260503023040 72 274 0.0 1.0 0.00 0.00 0.00 52 1011.7
20260503021541 73 123 0.0 3.0 0.00 0.00 0.00 50 1011.6
20260503020039 73 165 0.0 2.0 0.00 0.00 0.00 52 1011.7
20260503014538 74 225 0.0 3.0 0.00 0.00 0.00 49 1011.7
20260503013038 74 178 0.0 2.0 0.00 0.00 0.00 49 1011.8
20260503011536 74 229 0.0 2.0 0.00 0.00 0.00 49 1011.7
20260503010038 74 305 0.0 2.0 0.00 0.00 0.00 50 1011.7
20260503004537 74 166 0.0 3.0 0.00 0.00 0.00 49 1011.7
20260503003037 74 170 0.0 3.0 0.00 0.00 0.00 53 1011.8
20260503001534 74 151 1.0 3.0 0.00 0.00 0.00 50 1011.8
20260503000033 75 271 0.0 3.0 0.00 0.00 0.00 52 1012.0
20260502234546 75 319 0.0 4.0 0.00 0.00 0.00 52 1012.0
20260502233030 76 288 0.0 3.0 0.00 0.00 0.00 49 1012.1
20260502231527 76 317 0.0 3.0 0.00 0.00 0.00 49 1012.3
20260502230027 76 172 1.0 4.0 0.00 0.00 0.00 50 1012.6
20260502224523 76 126 0.0 3.0 0.00 0.00 0.00 50 1012.8
20260502223021 75 196 1.0 4.0 0.00 0.00 0.00 52 1013.0
20260502221519 75 206 1.0 3.0 0.00 0.00 0.00 53 1013.2
20260502220015 73 244 0.0 3.0 0.00 0.00 0.00 55 1013.4
20260502214525 73 209 1.0 3.0 0.00 0.00 0.00 56 1013.6
20260502213005 71 144 0.0 4.0 0.00 0.00 0.00 58 1014.0
20260502211601 69 91 1.0 4.0 0.00 0.00 0.00 61 1014.1
20260502210057 67 130 0.0 3.0 0.00 0.00 0.00 64 1014.3
20260502204558 64 271 0.0 2.0 0.00 0.00 0.00 70 1014.6
20260502203048 62 226 0.0 2.0 0.00 0.00 0.00 73 1014.8